[[{"header":{"parameterUnit":"m.s-1","parameterCategory":1,"la1":30.2991,"la2":30.254,"lo1":-89.0895,"lo2":-89.0444,"dy":0.0017,"dx":0.0017,"nx":28,"ny":28,"refTime":"2024-07-30T03:00:00:Z","depth":0,"parameterNumber":2,"parameterNumberName":"U-component_of_WINDS"},"data":[0,0,0,0,0,0,0,0,0,0,0,0,0,0,0,0,0,0,0,0,0,0,0,0,0,0,0,0,0,0,0,0,0,0,0,0,0,0,0,0,0,0,0,0,0,0,0,0,0,0,0,0,0,0,0,0,0,0,1.2313,1.2314,0,1.2477,1.2479,1.248,1.2551,1.2551,1.2551,1.255,1.2719,1.2723,1.2728,0,0,0,0,0,0,0,0,0,0,0,0,0,1.2059,1.2063,1.2312,1.2314,1.2316,1.2476,1.2479,1.2481,1.2551,1.2551,1.2551,1.255,1.2717,1.2723,1.2728,0,0,0,0,0,0,0,0,0,0,0,0,0,1.219,1.2064,1.2312,1.2371,1.2378,1.2476,1.2479,1.2481,1.2551,1.2551,1.255,1.255,1.2715,1.2722,1.2729,1.2781,0,0,1.2751,1.2754,0,0,0,0,0,0,0,0,1.2183,1.22,1.236,1.2367,1.2375,1.2493,1.2451,1.2582,1.2551,1.2485,1.255,1.255,1.2644,1.2657,1.2688,1.2789,1.2796,1.2751,1.2756,1.2759,1.2761,0,0,0,0,0,0,0,1.2174,1.2193,1.2377,1.2362,1.2371,1.2389,1.2407,1.2476,1.2565,1.2491,1.2497,1.2515,1.2648,1.2681,1.2693,1.2798,1.2751,1.2757,1.2762,1.2765,1.2949,1.2949,0,0,0,0,0,0,1.2155,1.2185,1.2372,1.2382,1.2276,1.2394,1.2414,1.2455,1.2564,1.2581,1.2515,1.2518,1.267,1.2685,1.2699,1.2767,1.2759,1.2765,1.2769,1.2948,1.2949,1.295,0,0,0,0,0,0,1.2149,1.2171,1.2366,1.2285,1.2311,1.2398,1.2444,1.2459,1.2493,1.2583,1.2599,1.2533,1.267,1.2689,1.276,1.2774,1.2768,1.2775,1.2947,1.2948,1.2949,1.2902,0,0,0,0,0,0,1.2142,1.2168,1.2189,1.2285,1.2315,1.2424,1.2445,1.2462,1.2505,1.251,1.2604,1.2619,1.2671,1.2749,1.2767,1.2783,1.278,1.2947,1.2948,1.2949,1.2903,1.2901,1.29,0,0,0,0,0,1.2132,1.217,1.219,1.2212,1.2343,1.2424,1.2442,1.25,1.2506,1.2527,1.2585,1.2616,1.2769,1.2756,1.2776,1.2795,1.2946,1.2948,1.2949,1.2904,1.2902,1.29,0,0,0,0,0,0,1.2074,1.2183,1.2207,1.2277,1.2341,1.2436,1.2465,1.2497,1.2561,1.2562,1.2633,1.2653,1.2718,1.2764,1.2747,1.2851,1.286,1.2866,1.2818,1.2818,1.2816,1.2804,1.2786,0,0,0,0,0,1.2069,1.2125,1.2218,1.2271,1.2301,1.2377,1.2415,1.2455,1.2524,1.2551,1.2614,1.268,1.2743,1.2782,1.2845,1.291,1.2931,1.2933,1.2931,1.293,1.2934,1.2971,1.2973,1.2954,1.2954,1.2954,0,0,1.2059,1.2126,1.2158,1.2261,1.2315,1.2372,1.24,1.2459,1.2502,1.256,1.2631,1.2679,1.2757,1.2824,1.2857,1.2864,1.2943,1.2931,1.2929,1.2935,1.2972,1.2974,1.2975,1.2955,1.2955,1.2955,0,0,1.2071,1.2128,1.2177,1.2231,1.2312,1.2362,1.2374,1.2465,1.2499,1.2571,1.2615,1.2667,1.2774,1.2828,1.2869,1.2899,1.2931,1.2918,1.2911,1.2946,1.2947,1.2949,1.296,1.2963,1.2921,1.2921,1.2921,0,1.2049,1.2137,1.2199,1.2256,1.2299,1.2354,1.2404,1.2453,1.2551,1.2579,1.2586,1.2721,1.2777,1.2858,1.2865,1.2896,1.2912,1.2908,1.2942,1.2944,1.2947,1.2958,1.2962,1.2919,1.2919,1.292,1.292,0,1.2106,1.2166,1.2196,1.2289,1.2336,1.2389,1.2458,1.2498,1.2533,1.2582,1.2654,1.2724,1.2801,1.2823,1.2858,1.2909,1.291,1.2928,1.2939,1.2945,1.2957,1.2962,1.2916,1.2917,1.2918,1.2918,0,0,1.2086,1.2212,1.2222,1.2264,1.2358,1.2405,1.246,1.2536,1.2569,1.2634,1.2682,1.277,1.2787,1.2834,1.2875,1.2906,1.2925,1.2921,1.2923,1.2919,1.2985,1.297,1.2974,1.2946,1.2947,1.2948,1.2978,0,1.2111,1.2213,1.2269,1.2347,1.2403,1.2456,1.2504,1.2566,1.2613,1.2667,1.2719,1.278,1.2798,1.2827,1.2859,1.2916,1.2939,1.2915,1.2992,1.2993,1.2971,1.2981,1.2966,1.2991,1.2983,1.2984,1.2984,0,1.2154,1.2218,1.2301,1.2387,1.2413,1.2455,1.2529,1.258,1.2651,1.2683,1.2734,1.2775,1.2835,1.2841,1.2924,1.2905,1.294,1.2972,1.2975,1.2985,1.2989,1.2991,1.3001,1.3004,1.2992,1.2991,1.2991,0,1.2131,1.2238,1.2302,1.2336,1.2439,1.2467,1.2511,1.2582,1.2623,1.2687,1.2715,1.2784,1.2823,1.2876,1.2934,1.2933,1.3012,1.3022,1.304,1.3038,1.3055,1.3053,1.307,1.3076,1.3076,1.3076,1.3076,0,1.2153,1.2202,1.2293,1.2332,1.2388,1.2452,1.2506,1.2554,1.2616,1.2665,1.2714,1.2759,1.2834,1.2888,1.2934,1.2996,1.3012,1.304,1.3052,1.3036,1.3032,1.306,1.306,1.3077,1.3077,1.3077,1.3076,0,1.2137,1.22,1.2273,1.2363,1.2387,1.2425,1.2502,1.2542,1.2591,1.2652,1.267,1.2747,1.2814,1.2877,1.2966,1.2996,1.3058,1.3073,1.3034,1.3041,1.3055,1.3052,1.3091,1.3099,1.3098,1.3098,1.3098,0,1.2147,1.2186,1.228,1.2317,1.236,1.2418,1.246,1.2524,1.2566,1.265,1.2679,1.2749,1.2808,1.2911,1.2975,1.3043,1.306,1.3069,1.3071,1.3053,1.3061,1.3058,1.3062,1.3067,1.3067,1.3067,1.3067,0,1.2158,1.2187,1.2246,1.2317,1.2366,1.2424,1.2484,1.2511,1.2586,1.2631,1.2699,1.2745,1.2835,1.2903,1.2978,1.3023,1.3058,1.3065,1.3073,1.3058,1.3033,1.3047,1.303,1.3065,1.3065,1.3065,1.3065,1.3065,1.2156,1.2192,1.2265,1.2329,1.2381,1.2435,1.2477,1.2531,1.2589,1.2667,1.2701,1.277,1.2839,1.2944,1.2988,1.3042,1.3051,1.3062,1.3065,1.3066,1.3063,1.3024,1.3056,1.3056,1.3056,1.3057,1.3057,0,1.2169,1.2218,1.2276,1.2359,1.2409,1.2436,1.2504,1.2544,1.2604,1.2666,1.2723,1.2801,1.2867,1.2935,1.3006,1.3036,1.3053,1.3052,1.3051,1.3061,1.3052,1.3038,1.3037,1.3037,1.3037,1.3037,1.3037,1.3037,1.2182,1.2246,1.2283,1.2372,1.2421,1.2489,1.2525,1.2575,1.2625,1.271,1.2765,1.2809,1.2874,1.2949,1.301,1.3029,1.3052,1.3047,1.307,1.306,1.3061,1.3062,1.305,1.3051,1.3051,1.3074,1.3074,1.3075]},{"header":{"parameterUnit":"m.s-1","parameterCategory":1,"la1":30.2991,"la2":30.254,"lo1":-89.0895,"lo2":-89.0444,"dy":0.0017,"dx":0.0017,"nx":28,"ny":28,"refTime":"2024-07-30T03:00:00:Z","depth":0,"parameterNumber":3,"parameterNumberName":"V-component_of_WINDS"},"data":[0,0,0,0,0,0,0,0,0,0,0,0,0,0,0,0,0,0,0,0,0,0,0,0,0,0,0,0,0,0,0,0,0,0,0,0,0,0,0,0,0,0,0,0,0,0,0,0,0,0,0,0,0,0,0,0,0,0,4.4093,4.4093,0,4.4067,4.4067,4.4066,4.4016,4.4015,4.4015,4.4014,4.3988,4.3988,4.3988,0,0,0,0,0,0,0,0,0,0,0,0,0,4.4101,4.4101,4.4093,4.4093,4.4093,4.4067,4.4067,4.4066,4.4017,4.4015,4.4014,4.4013,4.3987,4.3988,4.3988,0,0,0,0,0,0,0,0,0,0,0,0,0,4.4089,4.4101,4.4093,4.4065,4.4062,4.4067,4.4067,4.4066,4.4017,4.4015,4.4014,4.4013,4.3987,4.3988,4.3988,4.4019,0,0,4.3989,4.3989,0,0,0,0,0,0,0,0,4.409,4.4089,4.4069,4.4067,4.4063,4.4043,4.406,4.4051,4.4017,4.4034,4.4014,4.4012,4.4007,4.4006,4.4004,4.4018,4.4017,4.3989,4.3989,4.3989,4.3989,0,0,0,0,0,0,0,4.4091,4.4089,4.4083,4.4069,4.4066,4.4054,4.405,4.4058,4.4029,4.4032,4.4029,4.4026,4.4006,4.4004,4.4003,4.4017,4.3989,4.3989,4.399,4.399,4.4055,4.4057,0,0,0,0,0,0,4.4095,4.409,4.4084,4.4082,4.4073,4.4055,4.4051,4.4051,4.4029,4.4024,4.4028,4.4024,4.4004,4.4003,4.4002,4.4037,4.3989,4.399,4.399,4.4054,4.4056,4.4057,0,0,0,0,0,0,4.4096,4.4095,4.4085,4.4085,4.4083,4.4056,4.4057,4.4052,4.405,4.4025,4.402,4.4031,4.4003,4.4002,4.4015,4.4036,4.399,4.399,4.4052,4.4054,4.4056,4.4108,0,0,0,0,0,0,4.4096,4.4096,4.4107,4.4086,4.4083,4.4098,4.4058,4.4052,4.4051,4.4046,4.4027,4.4023,4.4002,4.4015,4.4016,4.4035,4.399,4.405,4.4053,4.4056,4.4105,4.4112,4.4118,0,0,0,0,0,4.4097,4.4123,4.4108,4.4107,4.4097,4.4099,4.4098,4.4073,4.4053,4.4064,4.4048,4.4024,4.4034,4.4017,4.4017,4.4037,4.4049,4.4052,4.4055,4.4101,4.411,4.4118,0,0,0,0,0,0,4.4147,4.4119,4.4103,4.4122,4.4114,4.4091,4.4104,4.4083,4.408,4.4076,4.4045,4.4042,4.4059,4.405,4.4032,4.4067,4.4037,4.4041,4.4072,4.4081,4.4087,4.4089,4.3991,0,0,0,0,0,4.416,4.4165,4.414,4.416,4.4157,4.4132,4.4132,4.4113,4.4103,4.4099,4.4084,4.4076,4.4077,4.4078,4.4078,4.4103,4.4099,4.4117,4.4124,4.413,4.4133,4.4146,4.4154,4.4069,4.4069,4.4069,0,0,4.4188,4.4174,4.4178,4.417,4.4161,4.4167,4.4129,4.4136,4.414,4.41,4.4112,4.4101,4.409,4.4109,4.4117,4.4102,4.4156,4.4134,4.4139,4.4139,4.415,4.4159,4.4166,4.4071,4.4071,4.407,0,0,4.4241,4.4231,4.4246,4.4238,4.4225,4.4208,4.4212,4.4193,4.4184,4.4195,4.4166,4.417,4.4173,4.4166,4.4163,4.4214,4.4192,4.4215,4.4251,4.4264,4.4271,4.4276,4.4295,4.4302,4.4219,4.4219,4.4219,0,4.4277,4.4284,4.4257,4.4266,4.4263,4.4228,4.4244,4.4237,4.4225,4.4224,4.4208,4.421,4.42,4.4218,4.423,4.4229,4.4233,4.4217,4.4272,4.4277,4.4282,4.43,4.4307,4.4222,4.4221,4.4221,4.4221,0,4.4329,4.4334,4.4348,4.4337,4.4336,4.4349,4.4324,4.4327,4.4309,4.4294,4.4306,4.4293,4.4289,4.4292,4.4275,4.4308,4.4299,4.4277,4.4247,4.4294,4.4309,4.4316,4.4226,4.4225,4.4224,4.4223,0,0,4.4412,4.4386,4.4392,4.4386,4.437,4.4374,4.4385,4.4381,4.4384,4.4377,4.4386,4.439,4.437,4.4366,4.4348,4.4359,4.4401,4.4336,4.4336,4.4349,4.4437,4.4452,4.446,4.4386,4.4387,4.4388,4.4437,0,4.4461,4.4478,4.4455,4.4477,4.4482,4.4449,4.4459,4.445,4.4437,4.4439,4.4425,4.4427,4.4401,4.4399,4.4409,4.4394,4.4418,4.439,4.4394,4.4395,4.4398,4.4468,4.4485,4.4532,4.4443,4.4444,4.4445,0,4.452,4.4516,4.4539,4.4522,4.4523,4.4532,4.4527,4.453,4.4519,4.4509,4.4506,4.4484,4.4494,4.4465,4.4479,4.446,4.4461,4.4454,4.4455,4.4454,4.4422,4.4469,4.4546,4.4553,4.4455,4.4454,4.4453,0,4.4579,4.4579,4.4593,4.4589,4.4569,4.4576,4.4568,4.4556,4.4556,4.4552,4.4551,4.4549,4.4548,4.4546,4.4525,4.4506,4.4541,4.4511,4.4533,4.4534,4.4541,4.4541,4.4619,4.4543,4.4543,4.4542,4.4542,0,4.4636,4.4651,4.4618,4.4627,4.4643,4.4617,4.4634,4.4622,4.4612,4.4618,4.459,4.4597,4.4568,4.4571,4.4554,4.4568,4.4568,4.456,4.4555,4.4562,4.4563,4.4562,4.4558,4.4544,4.4544,4.4543,4.4543,0,4.4703,4.4682,4.4694,4.4675,4.467,4.4683,4.4666,4.4673,4.4659,4.4667,4.4667,4.4644,4.4647,4.4625,4.4624,4.4613,4.4635,4.4624,4.4638,4.4635,4.4658,4.4656,4.4738,4.4747,4.4665,4.4666,4.4667,0,4.474,4.4751,4.4733,4.4735,4.4728,4.4731,4.4731,4.4705,4.4706,4.4696,4.4704,4.4705,4.4703,4.4709,4.4693,4.4692,4.4681,4.471,4.4681,4.4688,4.4681,4.4681,4.4682,4.4716,4.4717,4.4718,4.4718,0,4.4809,4.4798,4.4798,4.4795,4.4795,4.4791,4.4786,4.4789,4.4761,4.4764,4.4766,4.4765,4.4764,4.4765,4.4761,4.4753,4.4731,4.4728,4.4733,4.474,4.4747,4.4743,4.4654,4.4726,4.4725,4.4725,4.4724,4.4724,4.4862,4.4871,4.4859,4.486,4.4853,4.4849,4.4855,4.4841,4.4842,4.4839,4.4824,4.4829,4.4819,4.4812,4.4806,4.481,4.4796,4.4803,4.4805,4.4807,4.4811,4.4747,4.4809,4.4809,4.4809,4.4808,4.4808,0,4.4929,4.492,4.4922,4.4915,4.4916,4.4896,4.4889,4.4891,4.4896,4.4888,4.4888,4.4891,4.4892,4.4876,4.4874,4.4881,4.4871,4.4881,4.488,4.4879,4.4824,4.482,4.4889,4.4889,4.4889,4.4889,4.4889,4.4889,4.4964,4.4977,4.4965,4.4975,4.4966,4.497,4.4968,4.4964,4.4958,4.4963,4.4963,4.4953,4.4942,4.494,4.494,4.4935,4.4936,4.495,4.4942,4.4891,4.4883,4.4875,4.4871,4.495,4.495,4.4996,4.4997,4.4997]}]]